Location: ??
(35.4824°N, 139.4679°E)
Time: 07:43:53
(UTC+00:00)

Cosmos 1023 Rocket - Pass Details

Date: 29 October 2020
Orbit: 736 x 773 km, 74.1° (Epoch: 02 December)

Event Time Altitude Azimuth Distance (km) Brightness Sun altitude
Rises 20:13:49 0° 206° (SSW) 3,159 7.5 -10.4°
Reaches altitude 10° 20:16:12 10° 210° (SSW) 2,237 6.7 -9.9°
Maximum altitude 20:21:10 57° 289° (WNW) 862 4.5 -8.9°
Drops below altitude 10° 20:26:10 10° 9° (N) 2,246 6.9 -7.9°
Sets 20:28:34 0° 13° (NNE) 3,173 7.7 -7.4°
